THORAD AGENA D DEB, 4135

Orbit data source: Space-Track

THORAD AGENA D DEB, 4135 is space debris in LEO originally from a launch on Tue, 30 Sep 1969 UTC launched from the Air Force Western Test Range (AFWTR). Debris objects in space refer to the collection of defunct objects orbiting the Earth. Examples of debris include non-operational satellites, rocket bodies, and fragments generated from explosions, collisions, or faulty payload assembly.

Loading next visibility...
Identifier
4135, 1969-082DP
Orbit
LEO
Country
Flag of USUS
Related business
Manufacturer
Unknown
Mission
Spacecraft
Bus & Motor
Unknown
Mass
Unknown
Launch date (UTC)
1969-09-30 (57 years ago)
Launch vehicle
Unknown
Launch site
Air Force Western Test Range (AFWTR)
Object type
Payload
Rocket body
Debris
Shape & HBR
Unknown shape, 0.3 m
Radar Cross Section
Medium (>0.1 m² and <1 m²)

Expand to show TLE details & history
Last TLE update: 14 hours ago

TLE from 14 hours ago
0 THORAD AGENA D DEB
1  4135U 69082DP  26093.78058745  .00000567  00000-0  26764-3 0  9998
2  4135  69.9823 335.0577 0046804 352.0260   8.0110 14.24198357920849
Epoch: 2026-04-03T18:44Z
TLE epoch observation values (Epoch: 2026-04-03T18:44:02.755Z)
Latitude
-0.00008°
Longitude
-138.06361°
Altitude
780.209 km
Speed
7.481 km/s
True Right ascension
22h 20m 13s
True Declination
0° 00' 00"
Sunlit
Object was in daylight at epoch
Visualization orbit readout
Latitude
Unknown
Longitude
Unknown
Altitude
Unknown
Speed
Unknown
Apparent Right ascension
Unknown
Apparent Declination
Unknown
Sunlit
N/A
Visualization observer readout
Local Sidereal Time
14:41:23
Azimuth
Unknown
Elevation
Unknown
Doppler factor
Unknown
Orbital elements
Apogee altitude
842.847 km
Perigee altitude
775.568 km
Semi-major axis
7,187.345 km
Eccentricity
0.00468
Inclination
69.9823°
RAAN
335.0577°
Arg. of periapsis
352.026°
True anomaly
8.08618°
Mean anomaly
8.011°
Eccentric anomaly
8.04855°
Mean motion
3.56197 °/min
Orbital period
101.07 mins
BSTAR
0.00026764
Loading maneuver chart data...
Computing Atmospheric mass density...

Documentation

Showing up to 5 results
|